When you browse on this site, cookies collect data to enhance your experience and personalize the content and advertising you see.
Visit our Privacy Policy to learn more. By continuing to use the site, you agree to this use of cookies and data.
  • In Hungary
  • List of Countries
  • For 7 days
  • Water Temperature
  • Satellite Maps
  • Weather Map
  • News
  • Weather Widgets
  • user-avatar
    Login

    Hourly Weather Edva

    Today, 21 November, Wednesday

    Time Temperature Precipitation Wind Pressure Humidity
    00:00 -2°C° 0.1 mm 5 mps 735 mmHg 81%
    01:00 -3°C° 0.2 mm 6 mps 735 mmHg 79%
    02:00 -4°C° 0.2 mm 6 mps 736 mmHg 77%
    03:00 -4°C° 0 mm 7 mps 736 mmHg 75%
    04:00 -5°C° 0.1 mm 6 mps 737 mmHg 74%
    05:00 -5°C° 0.1 mm 6 mps 737 mmHg 73%
    06:00 -6°C° 0.1 mm 5 mps 737 mmHg 72%
    07:00 -6°C° 0.1 mm 5 mps 738 mmHg 71%
    08:00 -7°C° 0.1 mm 5 mps 738 mmHg 71%
    09:00 -7°C° 0.1 mm 5 mps 738 mmHg 71%
    10:00 -7°C° 0.1 mm 5 mps 738 mmHg 69%
    11:00 -7°C° 0.1 mm 5 mps 738 mmHg 68%
    12:00 -7°C° 0.1 mm 5 mps 738 mmHg 67%
    13:00 -7°C° 0.1 mm 5 mps 738 mmHg 68%
    14:00 -8°C° 0.1 mm 4 mps 738 mmHg 69%
    15:00 -8°C° 0.1 mm 4 mps 737 mmHg 70%
    16:00 -8°C° 0 mm 3 mps 737 mmHg 72%
    17:00 -8°C° 0 mm 3 mps 737 mmHg 74%
    18:00 -8°C° 0 mm 3 mps 737 mmHg 76%
    19:00 -9°C° 0 mm 3 mps 737 mmHg 79%
    20:00 -8°C° 0 mm 2 mps 737 mmHg 81%
    21:00 -8°C° 0 mm 2 mps 736 mmHg 84%
    22:00 -8°C° 0 mm 2 mps 736 mmHg 85%
    23:00 -9°C° 0 mm 2 mps 735 mmHg 87%

    Tomorrow, 22 November, Thursday

    Time Temperature Precipitation Wind Pressure Humidity
    00:00 -9°C° 0 mm 2 mps 734 mmHg 89%
    01:00 -9°C° 0 mm 2 mps 734 mmHg 89%
    02:00 -9°C° 0 mm 2 mps 733 mmHg 90%
    03:00 -9°C° 0 mm 2 mps 733 mmHg 90%
    04:00 -8°C° 0 mm 1 mps 732 mmHg 91%
    05:00 -8°C° 0 mm 1 mps 732 mmHg 91%
    06:00 -8°C° 0 mm 1 mps 731 mmHg 92%
    07:00 -8°C° 0 mm 1 mps 731 mmHg 92%
    08:00 -9°C° 0 mm 2 mps 730 mmHg 91%
    09:00 -9°C° 0 mm 2 mps 730 mmHg 91%
    10:00 -8°C° 0 mm 2 mps 729 mmHg 88%
    11:00 -8°C° 0 mm 2 mps 729 mmHg 85%
    12:00 -7°C° 0 mm 2 mps 728 mmHg 82%
    13:00 -8°C° 0.1 mm 3 mps 728 mmHg 83%
    14:00 -8°C° 0.1 mm 3 mps 728 mmHg 83%
    15:00 -8°C° 0.1 mm 3 mps 728 mmHg 84%
    16:00 -9°C° 0.2 mm 4 mps 729 mmHg 81%
    17:00 -10°C° 0.2 mm 5 mps 729 mmHg 79%
    18:00 -10°C° 0.2 mm 5 mps 729 mmHg 76%
    19:00 -11°C° 0.1 mm 5 mps 730 mmHg 77%
    20:00 -10°C° 0.1 mm 4 mps 731 mmHg 79%
    21:00 -10°C° 0.1 mm 4 mps 731 mmHg 80%
    22:00 -10°C° 0 mm 4 mps 732 mmHg 80%
    23:00 -11°C° 0 mm 4 mps 733 mmHg 81%

    Day after tomorrow, 23 November, Friday

    Time Temperature Precipitation Wind Pressure Humidity
    00:00 -12°C° 0 mm 5 mps 734 mmHg 81%
    01:00 -11°C° 0 mm 4 mps 735 mmHg 80%
    02:00 -11°C° 0 mm 4 mps 736 mmHg 80%
    03:00 -11°C° 0 mm 4 mps 737 mmHg 79%
    04:00 -12°C° 0 mm 3 mps 737 mmHg 81%
    05:00 -12°C° 0 mm 3 mps 738 mmHg 83%
    06:00 -13°C° 0 mm 3 mps 738 mmHg 84%
    07:00 -12°C° 0 mm 3 mps 738 mmHg 86%
    08:00 -10°C° 0 mm 2 mps 738 mmHg 87%
    09:00 -10°C° 0 mm 2 mps 738 mmHg 89%
    10:00 -10°C° 0.1 mm 3 mps 738 mmHg 87%
    11:00 -9°C° 0.1 mm 3 mps 738 mmHg 85%
    12:00 -9°C° 0.1 mm 4 mps 738 mmHg 83%
    13:00 -8°C° 0 mm 3 mps 738 mmHg 85%
    14:00 -8°C° 0 mm 3 mps 738 mmHg 88%
    15:00 -8°C° 0 mm 3 mps 738 mmHg 90%
    16:00 -8°C° 0 mm 3 mps 738 mmHg 91%
    17:00 -8°C° 0 mm 3 mps 737 mmHg 92%
    18:00 -7°C° 0 mm 2 mps 737 mmHg 93%
    19:00 -7°C° 0.1 mm 2 mps 737 mmHg 93%
    20:00 -7°C° 0.1 mm 2 mps 736 mmHg 93%
    21:00 -6°C° 0.1 mm 2 mps 736 mmHg 92%
    22:00 -7°C° 0.1 mm 2 mps 736 mmHg 93%
    23:00 -7°C° 0.1 mm 2 mps 735 mmHg 94%

    24 November, Saturday

    Time Temperature Precipitation Wind Pressure Humidity
    00:00 -7°C° 0.1 mm 2 mps 735 mmHg 96%
    01:00 -7°C° 0.1 mm 2 mps 734 mmHg 95%
    02:00 -7°C° 0.1 mm 2 mps 734 mmHg 95%
    03:00 -7°C° 0.1 mm 2 mps 733 mmHg 94%
    04:00 -6°C° 0.3 mm 2 mps 733 mmHg 94%
    05:00 -7°C° 0.3 mm 3 mps 732 mmHg 94%
    06:00 -7°C° 0.3 mm 3 mps 731 mmHg 94%
    07:00 -6°C° 0.4 mm 3 mps 731 mmHg 94%
    08:00 -6°C° 0.4 mm 3 mps 730 mmHg 94%
    09:00 -6°C° 0.4 mm 3 mps 729 mmHg 94%
    10:00 -5°C° 0.4 mm 3 mps 729 mmHg 93%
    11:00 -4°C° 0.4 mm 2 mps 728 mmHg 93%
    12:00 -4°C° 0.4 mm 2 mps 728 mmHg 92%
    13:00 -4°C° 0.3 mm 2 mps 728 mmHg 93%
    14:00 -4°C° 0.3 mm 2 mps 728 mmHg 94%
    15:00 -4°C° 0.3 mm 2 mps 727 mmHg 95%
    16:00 -3°C° 0.2 mm 1 mps 727 mmHg 95%
    17:00 -3°C° 0.2 mm 1 mps 727 mmHg 96%
    18:00 -3°C° 0.2 mm 1 mps 727 mmHg 96%
    19:00 -3°C° 0.3 mm 1 mps 728 mmHg 96%
    20:00 -3°C° 0.3 mm 1 mps 728 mmHg 96%
    21:00 -3°C° 0.3 mm 1 mps 728 mmHg 96%
    22:00 -6°C° 0.2 mm 2 mps 729 mmHg 95%
    23:00 -6°C° 0.2 mm 2 mps 729 mmHg 94%

    25 November, Sunday

    Time Temperature Precipitation Wind Pressure Humidity
    00:00 -6°C° 0.2 mm 2 mps 730 mmHg 93%
    01:00 -7°C° 0.1 mm 2 mps 730 mmHg 92%
    02:00 -8°C° 0.1 mm 2 mps 731 mmHg 92%
    03:00 -9°C° 0.1 mm 2 mps 732 mmHg 91%
    04:00 -9°C° 0 mm 2 mps 732 mmHg 91%
    05:00 -10°C° 0 mm 2 mps 733 mmHg 91%
    06:00 -10°C° 0 mm 2 mps 734 mmHg 91%
    07:00 -12°C° 0 mm 2 mps 734 mmHg 91%
    08:00 -12°C° 0 mm 2 mps 735 mmHg 91%
    09:00 -13°C° 0 mm 2 mps 736 mmHg 91%
    10:00 -13°C° 0 mm 2 mps 737 mmHg 90%
    11:00 -11°C° 0 mm 1 mps 737 mmHg 90%
    12:00 -11°C° 0 mm 1 mps 738 mmHg 89%
    13:00 -12°C° 0 mm 1 mps 739 mmHg 90%
    14:00 -12°C° 0 mm 1 mps 739 mmHg 92%
    15:00 -13°C° 0 mm 1 mps 740 mmHg 93%
    16:00 -13°C° 0 mm 1 mps 740 mmHg 93%
    17:00 -14°C° 0 mm 1 mps 740 mmHg 94%
    18:00 -14°C° 0 mm 1 mps 741 mmHg 94%
    19:00 -15°C° 0 mm 1 mps 741 mmHg 94%
    20:00 -15°C° 0 mm 1 mps 741 mmHg 94%
    21:00 -15°C° 0 mm 1 mps 741 mmHg 94%
    22:00 -15°C° 0 mm 1 mps 742 mmHg 94%
    23:00 -16°C° 0 mm 1 mps 742 mmHg 94%

    26 November, Monday

    Time Temperature Precipitation Wind Pressure Humidity
    00:00 -16°C° 0 mm 1 mps 742 mmHg 94%
    01:00 -16°C° 0 mm 1 mps 742 mmHg 94%
    02:00 -16°C° 0 mm 1 mps 742 mmHg 94%
    03:00 -16°C° 0 mm 1 mps 742 mmHg 94%
    04:00 -16°C° 0 mm 1 mps 742 mmHg 94%
    05:00 -16°C° 0 mm 1 mps 742 mmHg 94%
    06:00 -15°C° 0 mm 1 mps 742 mmHg 94%
    07:00 -15°C° 0 mm 1 mps 742 mmHg 94%
    08:00 -15°C° 0 mm 1 mps 742 mmHg 94%
    09:00 -15°C° 0 mm 1 mps 742 mmHg 94%
    10:00 -14°C° 0 mm 1 mps 742 mmHg 93%
    11:00 -14°C° 0 mm 1 mps 742 mmHg 92%
    12:00 -13°C° 0 mm 1 mps 742 mmHg 92%
    13:00 -13°C° 0 mm 1 mps 742 mmHg 92%
    14:00 -14°C° 0 mm 1 mps 742 mmHg 93%
    15:00 -14°C° 0 mm 1 mps 742 mmHg 94%
    16:00 -16°C° 0 mm 2 mps 742 mmHg 94%
    17:00 -16°C° 0 mm 2 mps 742 mmHg 94%
    18:00 -16°C° 0 mm 2 mps 741 mmHg 94%
    19:00 -16°C° 0 mm 2 mps 741 mmHg 94%
    20:00 -16°C° 0 mm 2 mps 741 mmHg 94%
    21:00 -15°C° 0 mm 2 mps 741 mmHg 94%
    22:00 -16°C° 0 mm 2 mps 741 mmHg 94%
    23:00 -16°C° 0 mm 2 mps 741 mmHg 94%
    Show more